• In Portugal
  • List of Countries
  • For 7 days
  • Water Temperature
  • Satellite Maps
  • Weather Map
  • Weather Widgets
  • user-avatar
    Login

    Hourly Weather Natal

    Today, 20 September, Wednesday

    Time Temperature Precipitation Wind Pressure Humidity
    00:00 +24°C° 0 mm 6 mps 761 mmHg 80%
    01:00 +23°C° 0 mm 6 mps 761 mmHg 82%
    02:00 +23°C° 0 mm 6 mps 761 mmHg 84%
    03:00 +23°C° 0 mm 6 mps 761 mmHg 86%
    04:00 +22°C° 0 mm 6 mps 761 mmHg 88%
    05:00 +23°C° 0 mm 6 mps 761 mmHg 88%
    06:00 +23°C° 0 mm 6 mps 761 mmHg 87%
    07:00 +23°C° 0 mm 6 mps 761 mmHg 86%
    08:00 +26°C° 0 mm 7 mps 761 mmHg 76%
    09:00 +29°C° 0 mm 7 mps 762 mmHg 66%
    10:00 +32°C° 0 mm 8 mps 762 mmHg 56%
    11:00 +32°C° 0 mm 8 mps 762 mmHg 54%
    12:00 +33°C° 0 mm 8 mps 761 mmHg 53%
    13:00 +33°C° 0 mm 8 mps 761 mmHg 51%
    14:00 +33°C° 0 mm 8 mps 761 mmHg 51%
    15:00 +33°C° 0 mm 8 mps 760 mmHg 52%
    16:00 +32°C° 0 mm 8 mps 760 mmHg 52%
    17:00 +31°C° 0 mm 8 mps 760 mmHg 59%
    18:00 +28°C° 0 mm 8 mps 760 mmHg 65%
    19:00 +27°C° 0 mm 7 mps 761 mmHg 71%
    20:00 +26°C° 0 mm 7 mps 761 mmHg 74%
    21:00 +26°C° 0 mm 7 mps 761 mmHg 77%
    22:00 +24°C° 0 mm 7 mps 762 mmHg 81%
    23:00 +24°C° 0.1 mm 7 mps 762 mmHg 83%

    Tomorrow, 21 September, Thursday

    Time Temperature Precipitation Wind Pressure Humidity
    00:00 +23°C° 0.1 mm 7 mps 761 mmHg 85%
    01:00 +23°C° 0.1 mm 6 mps 761 mmHg 87%
    02:00 +23°C° 0.2 mm 6 mps 761 mmHg 88%
    03:00 +23°C° 0.2 mm 6 mps 761 mmHg 90%
    04:00 +22°C° 0.2 mm 6 mps 760 mmHg 92%
    05:00 +23°C° 0.1 mm 6 mps 760 mmHg 90%
    06:00 +23°C° 0.1 mm 6 mps 761 mmHg 89%
    07:00 +23°C° 0.1 mm 6 mps 761 mmHg 88%
    08:00 +27°C° 0.1 mm 7 mps 761 mmHg 78%
    09:00 +29°C° 0.1 mm 7 mps 762 mmHg 68%
    10:00 +32°C° 0.1 mm 8 mps 762 mmHg 58%
    11:00 +32°C° 0.3 mm 8 mps 762 mmHg 59%
    12:00 +32°C° 0.3 mm 8 mps 761 mmHg 59%
    13:00 +32°C° 0.3 mm 9 mps 761 mmHg 60%
    14:00 +32°C° 0.1 mm 9 mps 760 mmHg 59%
    15:00 +32°C° 0.1 mm 9 mps 760 mmHg 58%
    16:00 +32°C° 0.1 mm 9 mps 759 mmHg 56%
    17:00 +31°C° 0 mm 8 mps 760 mmHg 62%
    18:00 +28°C° 0 mm 8 mps 760 mmHg 68%
    19:00 +27°C° 0 mm 7 mps 760 mmHg 73%
    20:00 +27°C° 0.1 mm 7 mps 761 mmHg 75%
    21:00 +26°C° 0.1 mm 6 mps 762 mmHg 77%
    22:00 +26°C° 0.1 mm 6 mps 762 mmHg 79%
    23:00 +24°C° 0.1 mm 6 mps 762 mmHg 80%

    Day after tomorrow, 22 September, Friday

    Time Temperature Precipitation Wind Pressure Humidity
    00:00 +24°C° 0.1 mm 6 mps 761 mmHg 81%
    01:00 +24°C° 0.1 mm 6 mps 761 mmHg 82%
    02:00 +24°C° 0.1 mm 6 mps 761 mmHg 84%
    03:00 +23°C° 0.1 mm 6 mps 760 mmHg 85%
    04:00 +23°C° 0.1 mm 6 mps 760 mmHg 86%
    05:00 +23°C° 0.1 mm 6 mps 760 mmHg 86%
    06:00 +24°C° 0.1 mm 6 mps 761 mmHg 85%
    07:00 +24°C° 0.1 mm 6 mps 761 mmHg 85%
    08:00 +27°C° 0.4 mm 6 mps 761 mmHg 76%
    09:00 +29°C° 0.4 mm 6 mps 762 mmHg 68%
    10:00 +32°C° 0.4 mm 7 mps 762 mmHg 59%
    11:00 +32°C° 0.3 mm 7 mps 762 mmHg 58%
    12:00 +32°C° 0.3 mm 7 mps 761 mmHg 57%
    13:00 +32°C° 0.3 mm 7 mps 761 mmHg 56%
    14:00 +32°C° 0.1 mm 7 mps 760 mmHg 56%
    15:00 +32°C° 0.1 mm 7 mps 760 mmHg 57%
    16:00 +32°C° 0.1 mm 7 mps 759 mmHg 57%
    17:00 +30°C° 0.1 mm 7 mps 760 mmHg 64%
    18:00 +28°C° 0.1 mm 6 mps 760 mmHg 70%
    19:00 +27°C° 0.1 mm 6 mps 760 mmHg 77%
    20:00 +26°C° 0.4 mm 6 mps 761 mmHg 79%
    21:00 +26°C° 0.4 mm 6 mps 761 mmHg 81%
    22:00 +26°C° 0.4 mm 6 mps 762 mmHg 83%
    23:00 +24°C° 0.7 mm 6 mps 761 mmHg 85%

    23 September, Saturday

    Time Temperature Precipitation Wind Pressure Humidity
    00:00 +24°C° 0.7 mm 6 mps 761 mmHg 87%
    01:00 +23°C° 0.7 mm 5 mps 761 mmHg 89%
    02:00 +23°C° 0.5 mm 5 mps 760 mmHg 90%
    03:00 +23°C° 0.5 mm 5 mps 760 mmHg 90%
    04:00 +22°C° 0.5 mm 5 mps 760 mmHg 91%
    05:00 +23°C° 0.5 mm 5 mps 760 mmHg 90%
    06:00 +23°C° 0.5 mm 5 mps 760 mmHg 89%
    07:00 +23°C° 0.5 mm 5 mps 761 mmHg 88%
    08:00 +26°C° 0.4 mm 5 mps 761 mmHg 79%
    09:00 +28°C° 0.4 mm 5 mps 761 mmHg 70%
    10:00 +30°C° 0.4 mm 6 mps 762 mmHg 61%
    11:00 +32°C° 0.2 mm 6 mps 761 mmHg 58%
    12:00 +33°C° 0.2 mm 6 mps 761 mmHg 54%
    13:00 +34°C° 0.2 mm 7 mps 760 mmHg 51%
    14:00 +33°C° 0.1 mm 7 mps 760 mmHg 54%
    15:00 +32°C° 0.1 mm 7 mps 759 mmHg 57%
    16:00 +32°C° 0.1 mm 7 mps 759 mmHg 60%
    17:00 +29°C° 0.1 mm 7 mps 759 mmHg 67%
    18:00 +28°C° 0.1 mm 6 mps 760 mmHg 74%
    19:00 +26°C° 0.1 mm 6 mps 760 mmHg 81%
    20:00 +26°C° 0.2 mm 6 mps 760 mmHg 83%
    21:00 +24°C° 0.2 mm 6 mps 761 mmHg 86%
    22:00 +24°C° 0.2 mm 6 mps 761 mmHg 88%
    23:00 +24°C° 0.3 mm 6 mps 761 mmHg 89%

    24 September, Sunday

    Time Temperature Precipitation Wind Pressure Humidity
    00:00 +23°C° 0.3 mm 6 mps 760 mmHg 90%
    01:00 +23°C° 0.3 mm 6 mps 760 mmHg 91%
    02:00 +23°C° 0.3 mm 6 mps 760 mmHg 92%
    03:00 +23°C° 0.3 mm 6 mps 759 mmHg 92%
    04:00 +23°C° 0.3 mm 6 mps 759 mmHg 93%
    05:00 +23°C° 0.2 mm 7 mps 760 mmHg 92%
    06:00 +23°C° 0.2 mm 7 mps 760 mmHg 90%
    07:00 +23°C° 0.2 mm 7 mps 760 mmHg 89%
    08:00 +26°C° 0.1 mm 7 mps 761 mmHg 80%
    09:00 +28°C° 0.1 mm 8 mps 761 mmHg 70%
    10:00 +31°C° 0.1 mm 8 mps 761 mmHg 61%
    11:00 +32°C° 0.1 mm 8 mps 760 mmHg 58%
    12:00 +33°C° 0.1 mm 8 mps 760 mmHg 54%
    13:00 +34°C° 0.1 mm 8 mps 759 mmHg 51%
    14:00 +33°C° 0 mm 9 mps 759 mmHg 53%
    15:00 +32°C° 0 mm 9 mps 759 mmHg 54%
    16:00 +32°C° 0 mm 9 mps 758 mmHg 56%
    17:00 +29°C° 0 mm 8 mps 759 mmHg 62%
    18:00 +28°C° 0 mm 8 mps 759 mmHg 68%
    19:00 +27°C° 0 mm 7 mps 759 mmHg 73%
    20:00 +26°C° 0 mm 7 mps 760 mmHg 76%
    21:00 +26°C° 0 mm 7 mps 760 mmHg 79%
    22:00 +24°C° 0 mm 6 mps 760 mmHg 82%
    23:00 +24°C° 0 mm 6 mps 760 mmHg 83%

    25 September, Monday

    Time Temperature Precipitation Wind Pressure Humidity
    00:00 +24°C° 0 mm 6 mps 760 mmHg 85%
    01:00 +23°C° 0 mm 6 mps 760 mmHg 86%
    02:00 +23°C° 0.1 mm 6 mps 760 mmHg 88%
    03:00 +23°C° 0.1 mm 6 mps 759 mmHg 89%
    04:00 +22°C° 0.1 mm 6 mps 759 mmHg 90%
    05:00 +23°C° 0.1 mm 6 mps 760 mmHg 89%
    06:00 +23°C° 0.1 mm 6 mps 760 mmHg 89%
    07:00 +23°C° 0.1 mm 6 mps 761 mmHg 88%
    08:00 +26°C° 0.1 mm 6 mps 761 mmHg 80%
    09:00 +28°C° 0.1 mm 7 mps 761 mmHg 72%
    10:00 +30°C° 0.1 mm 7 mps 761 mmHg 64%
    11:00 +32°C° 0.1 mm 7 mps 761 mmHg 61%
    12:00 +32°C° 0.1 mm 8 mps 760 mmHg 59%
    13:00 +33°C° 0.1 mm 8 mps 760 mmHg 57%
    14:00 +32°C° 0.1 mm 8 mps 759 mmHg 58%
    15:00 +32°C° 0.1 mm 8 mps 759 mmHg 60%
    16:00 +31°C° 0.1 mm 8 mps 759 mmHg 61%
    17:00 +29°C° 0.1 mm 8 mps 759 mmHg 68%
    18:00 +28°C° 0.1 mm 7 mps 759 mmHg 74%
    19:00 +26°C° 0.1 mm 7 mps 759 mmHg 80%
    20:00 +26°C° 0.1 mm 7 mps 760 mmHg 82%
    21:00 +26°C° 0.1 mm 7 mps 760 mmHg 84%
    22:00 +24°C° 0.1 mm 7 mps 760 mmHg 86%
    23:00 +24°C° 0.1 mm 7 mps 760 mmHg 87%
    Show more